CAPE
0 0 0 0 2 1 1 0 0 1 0 0 0 0 0 0 0 0 0 0 0 0 0 0 0 0 0 0 0 0 0 0 0 0 0 0 0 0 0 0 0 0 0 0 0 0 0 0 0 0 0 0 0 0
2 0 0 1 0 1 1 1 0 0 1 0 0 0 0 0 0 0 0 0 0 0 0 0 0 0 0 0 0 0 0 0 0 0 0 0 0 0 0 0 0 0 0 0 0 0 0 0 0 0 0 0 0 0
1 1 2 0 0 1 1 1 0 1 0 0 0 0 0 0 0 0 0 0 0 0 0 0 0 0 0 0 0 0 0 0 0 0 0 0 0 0 0 0 0 0 0 0 0 0 0 0 0 0 0 0 0 0
1 1 2 1 0 1 1 1 1 1 0 0 0 0 0 0 0 0 0 0 0 0 0 0 0 0 0 0 0 0 0 0 0 0 0 0 0 0 0 0 0 0 0 0 0 0 0 0 0 0 0 0 0 0
1 1 1 1 0 0 1 1 1 1 0 0 0 0 0 0 0 0 0 0 0 0 0 0 0 0 0 0 0 0 0 0 0 0 0 0 0 0 0 0 0 0 0 0 0 0 0 0 0 0 0 0 0 0
1 1 1 1 1 1 1 1 1 0 0 0 0 0 0 0 0 0 0 0 0 0 0 0 0 0 0 0 0 0 0 0 0 0 0 0 0 0 0 0 0 0 0 0 0 0 0 0 5 3 0 0 0 0
1 1 1 1 2 0 1 1 1 0 0 0 0 0 0 0 0 0 0 0 0 0 0 0 4 0 0 0 0 0 0 0 0 0 0 0 0 0 0 0 0 0 0 0 0 0 0 0 0 27 13 0 0 0
1 1 1 1 1 1 0 0 0 0 0 0 0 0 0 0 0 0 0 0 0 0 0 0 0 0 0 0 0 0 0 0 0 0 0 0 0 0 0 0 0 0 0 0 0 0 0 0 0 0 0 0 0 0
1 1 1 1 1 1 1 0 0 0 0 0 0 0 0 0 0 0 0 0 0 0 7 12 1 61 0 0 0 0 0 0 0 0 0 0 0 0 0 0 0 0 0 0 0 1 0 0 0 0 0 0 0 0
1 1 1 1 1 1 0 0 0 0 0 0 0 0 6 8 0 0 0 0 0 0 0 0 24 124 0 0 0 1 0 0 0 0 0 0 0 0 0 0 0 0 0 0 1 0 0 0 1 6 0 9 1 1
0 1 1 0 0 0 0 0 0 0 0 0 1 15 6 0 1 2 0 0 0 0 0 0 0 20 21 13 2 4 6 5 1 0 0 0 0 0 0 0 0 2 10 0 0 0 0 1 5 11 2 0 1 2
0 0 0 0 0 0 0 0 0 0 0 0 0 0 1 19 17 1 0 2 1 0 19 53 7 0 43 5 5 1 3 0 1 10 3 0 0 0 0 0 32 20 1 0 0 3 6 16 22 16 9 0 0 0
0 0 0 0 0 0 0 0 0 0 0 0 0 0 59 5 6 0 0 2 28 63 116 273 163 103 21 0 0 0 0 0 0 0 0 0 0 0 0 0 0 0 9 1 0 1 13 18 52 14 12 3 1 0
0 0 0 0 0 0 0 0 0 0 0 0 2 0 0 0 0 0 0 15 21 110 70 1 1 48 25 0 0 0 0 0 2 2 0 0 0 0 0 0 0 0 0 0 0 1 3 9 28 52 62 36 22 19
0 0 0 0 0 0 0 0 0 0 0 0 1 0 0 0 4 10 4 8 20 6 1 0 0 8 2 2 1 0 0 1 1 0 0 0 0 0 0 0 0 0 0 0 0 0 0 0 0 4 2 0 0 0
0 0 0 0 0 0 0 0 0 0 0 0 0 0 0 0 0 0 0 43 0 0 0 0 0 5 5 1 0 0 0 0 0 0 0 0 2 6 0 0 0 0 0 0 0 0 0 0 0 3 3 0 0 0
0 0 0 0 0 0 0 0 0 0 0 0 0 0 0 0 0 0 0 23 22 12 43 17 6 3 0 0 0 0 0 0 0 9 5 0 0 0 0 0 0 0 0 0 0 0 0 0 0 0 0 0 0 0
0 0 0 0 0 0 0 0 0 16 0 0 0 0 0 0 0 0 162 85 82 77 28 18 1 0 0 0 0 0 0 0 0 0 4 2 0 0 0 0 0 0 0 0 0 0 0 0 0 0 0 0 0 0
0 0 0 0 0 0 0 8 1 0 0 0 0 0 0 0 87 97 80 41 43 84 49 16 9 0 0 0 0 0 0 0 0 0 0 0 0 0 0 0 0 0 0 0 0 0 0 0 0 0 0 0 0 0
0 0 0 0 0 0 0 0 15 3 0 1 0 0 0 0 33 7 2 2 1 9 1 0 0 0 0 0 0 0 0 0 0 0 0 0 0 0 0 0 0 0 0 0 0 0 0 0 0 0 0 0 0 0
0 0 0 0 0 0 0 1 15 2 3 0 0 2 8 21 23 19 7 0 0 0 0 0 0 1 0 0 0 0 0 0 0 0 0 0 0 0 0 0 0 0 0 0 0 0 0 0 0 0 0 0 0 1
0 0 0 0 0 13 0 0 0 0 0 0 0 0 0 41 58 13 1 0 0 0 0 0 0 0 0 0 0 0 0 0 0 3 2 0 0 0 0 0 0 0 0 0 0 0 0 0 0 0 0 0 0 0
0 0 0 2 15 10 0 0 1 0 0 12 33 28 32 9 2 0 0 8 25 8 0 0 0 0 0 0 0 0 0 0 0 0 0 0 0 0 0 0 0 0 0 0 0 1 10 8 1 1 11 0 2 2
0 0 16 9 3 0 0 4 30 11 6 0 2 4 0 0 1 0 0 0 0 2 0 0 0 0 0 0 0 0 0 0 0 0 0 0 0 0 0 0 0 0 0 0 0 0 2 8 13 6 3 4 9 11
0 0 0 0 0 12 3 0 0 0 11 18 4 8 11 0 3 5 5 13 5 13 2 0 0 0 0 0 0 0 0 0 0 0 0 0 0 0 0 0 0 0 0 0 0 0 2 4 7 5 0 0 0 0
3 0 0 0 0 0 2 17 16 9 3 8 29 35 16 5 0 6 0 0 1 10 5 1 0 0 0 0 0 0 0 0 0 0 0 0 0 0 0 0 0 0 0 0 0 0 0 0 0 0 0 0 0 0
0 0 0 0 0 0 0 16 6 1 5 29 64 31 14 9 15 0 0 0 0 0 0 1 1 2 7 1 0 0 0 0 0 0 0 0 0 0 0 0 0 0 0 0 0 0 0 0 0 0 0 0 0 0
0 0 0 0 2 1 0 0 0 2 17 156 43 12 10 0 0 0 0 0 0 0 0 2 11 11 0 0 0 0 0 0 0 0 0 0 0 0 0 0 0 0 0 0 0 0 0 0 0 0 0 0 0 0
0 0 0 0 0 3 7 5 0 3 7 30 48 22 2 0 14 0 0 0 0 0 0 0 0 0 0 0 0 0 0 0 0 0 0 0 0 0 0 0 0 0 0 0 0 0 0 0 0 0 0 0 0 0
0 0 0 0 0 0 0 2 0 0 14 186 111 45 30 30 5 0 0 0 0 0 0 0 0 0 0 0 0 0 0 0 0 0 0 0 0 0 0 0 0 0 0 0 0 0 0 0 0 0 0 0 0 0
0 0 0 0 0 0 0 0 0 172 245 30 9 5 0 0 0 0 0 0 0 0 0 0 0 0 0 0 0 0 0 0 0 0 0 0 0 0 0 0 0 0 0 0 0 0 0 0 0 0 0 0 0 0
0 0 0 1 0 0 0 1 0 81 121 44 25 0 0 2 2 0 4 1 0 0 0 0 0 0 0 0 0 0 0 0 0 0 0 0 0 0 0 0 0 0 0 0 0 0 0 0 0 0 0 0 0 0
0 0 0 0 0 0 0 0 62 21 59 50 30 5 0 0 1 15 22 21 9 34 19 4 0 0 0 0 0 0 0 0 0 0 0 0 0 0 0 0 0 0 0 0 0 0 0 0 0 0 0 0 0 0
CIN
-0 -1 -0 -0 -0 -0 -0 -0 -0 -0 -0 -0 -0 -0 -0 -0 -0 -0 -0 -0 -0 -0 -0 -0 -0 -0 -0 -0 -0 -0 -0 -0 -0 -0 -0 -0 -0 -0 -0 -0 -0 -0 -0 -0 -0 -0 -0 -0 -0 -0 -0 -0 -0 -0
-0 -0 -0 -0 -0 -0 -0 -0 -0 -1 -0 -0 -0 -0 -0 -0 -0 -0 -0 -0 -0 -0 -0 -0 -0 -0 -0 -0 -0 -0 -0 -0 -0 -0 -0 -0 -0 -0 -0 -0 -0 -0 -0 -0 -0 -0 -0 -0 -0 -0 -0 -0 -0 -0
-0 -0 -0 -0 -0 -0 -0 -0 -0 -1 -0 -0 -0 -0 -0 -0 -0 -0 -0 -0 -0 -0 -0 -0 -0 -0 -0 -0 -0 -0 -0 -0 -0 -0 -0 -0 -0 -0 -0 -0 -0 -0 -0 -0 -0 -0 -0 -0 -0 -0 -0 -0 -0 -0
-0 -0 -0 -0 -2 -0 -0 -0 -0 -0 -0 -0 -0 -0 -0 -0 -0 -0 -0 -0 -0 -0 -0 -0 -0 -0 -0 -0 -0 -0 -0 -0 -0 -0 -0 -0 -0 -0 -0 -0 -0 -0 -0 -0 -0 -0 -0 -0 -0 -0 -0 -0 -0 -0
-0 -0 -0 -0 -0 -0 -0 -0 -0 -0 -0 -0 -0 -0 -0 -0 -0 -0 -0 -0 -0 -0 -0 -0 -0 -0 -0 -0 -0 -0 -0 -0 -0 -0 -0 -0 -0 -0 -0 -0 -0 -0 -0 -0 -0 -0 -0 -0 -0 -0 -0 -0 -0 -0
-0 -0 -0 -0 -0 -0 -0 -0 -0 -0 -0 -0 -0 -0 -0 -0 -0 -0 -0 -0 -0 -0 -0 -0 -0 -0 -0 -0 -0 -0 -0 -0 -0 -0 -0 -0 -0 -0 -0 -0 -0 -0 -0 -0 -0 -0 -0 -0 -47 -40 -0 -0 -0 -0
-0 -0 -0 -0 -0 -0 -0 -0 -0 -0 -0 -0 -0 -0 -0 -0 -0 -0 -0 -0 -0 -0 -0 -0 -82 -0 -0 -0 -0 -0 -0 -0 -0 -0 -0 -0 -0 -0 -0 -0 -0 -0 -0 -0 -0 -0 -0 -0 -0 -51 -45 -1 -0 -0
-0 -0 -0 -0 -0 -0 -0 -0 -0 -0 -0 -0 -0 -0 -0 -0 -0 -0 -0 -0 -0 -0 -0 -0 -0 -0 -0 -0 -0 -0 -0 -0 -0 -0 -0 -0 -0 -0 -0 -0 -0 -0 -0 -0 -0 -0 -0 -0 -0 -0 -0 -21 -0 -0
-0 -0 -0 -0 -0 -0 -0 -0 -0 -0 -0 -0 -0 -0 -0 -0 -0 -0 -0 -0 -0 -0 -95 -91 -21 -49 -0 -0 -0 -0 -0 -0 -0 -0 -0 -0 -0 -0 -0 -0 -0 -0 -0 -0 -1 -15 -4 -1 -0 -0 -0 -0 -0 -0
-0 -0 -0 -0 -0 -0 -0 -0 -0 -0 -0 -0 -0 -0 -57 -95 -0 -0 -0 -0 -0 -0 -0 -0 -104 -12 -0 -0 -0 -2 -2 -0 -0 -0 -0 -0 -0 -0 -0 -0 -0 -0 -0 -0 -21 -0 -0 -0 -20 -27 -7 -57 -81 -55
-0 -0 -0 -0 -0 -0 -0 -0 -0 -0 -0 -0 -19 -36 -64 -0 -55 -49 -0 -0 -0 -0 -0 -0 -0 -22 -102 -43 -22 -34 -19 -19 -1 -0 -0 -0 -0 -0 -0 -0 -0 -6 -19 -0 -0 -0 -0 -6 -23 -29 -39 -0 -41 -40
-0 -0 -0 -0 -0 -0 -0 -0 -0 -0 -0 -0 -34 -0 -95 -96 -105 -67 -0 -2 -35 -10 -130 -79 -81 -0 -65 -16 -36 -32 -8 -0 -0 -11 -2 -0 -0 -0 -0 -0 -25 -27 -13 -0 -2 -15 -12 -32 -38 -39 -49 -3 -0 -0
-0 -0 -0 -0 -0 -0 -0 -0 -0 -0 -0 -0 -0 -0 -31 -73 -136 -0 -4 -221 -157 -100 -63 -29 -39 -65 -102 -0 -0 -0 -0 -1 -0 -0 -0 -0 -0 -0 -0 -0 -7 -0 -29 -58 -0 -10 -19 -25 -41 -40 -43 -62 -5 -0
-0 -0 -0 -0 -0 -0 -0 -0 -0 -0 -0 -0 -37 -0 -0 -48 -80 -0 -3 -121 -97 -70 -74 -52 -8 -64 -85 -30 -0 -0 -0 -0 -17 -0 -0 -0 -0 -0 -5 -0 -0 -0 -0 -0 -0 -17 -37 -28 -22 -26 -28 -28 -29 -25
-0 -0 -0 -0 -0 -0 -0 -0 -0 -0 -0 -0 -10 -0 -0 -0 -94 -56 -74 -108 -122 -92 -139 -33 -0 -55 -25 -42 -10 -0 -1 -0 -0 -0 -0 -0 -0 -0 -0 -0 -0 -0 -0 -0 -0 -0 -0 -0 -20 -35 -42 -21 -20 -0
-0 -0 -0 -0 -0 -0 -0 -0 -0 -0 -0 -0 -0 -0 -0 -0 -0 -0 -0 -65 -0 -0 -0 -0 -0 -19 -46 -0 -0 -0 -0 -0 -0 -0 -16 -0 -38 -37 -0 -0 -0 -0 -0 -0 -0 -0 -0 -0 -16 -18 -29 -2 -0 -0
-0 -0 -0 -0 -0 -0 -0 -0 -0 -0 -0 -0 -0 -0 -0 -0 -0 -0 -0 -44 -180 -129 -41 -33 -30 -39 -0 -0 -0 -0 -0 -0 -0 -68 -67 -5 -0 -0 -0 -0 -0 -0 -0 -0 -0 -0 -0 -0 -0 -0 -0 -0 -0 -0
-0 -0 -0 -0 -0 -0 -0 -0 -0 -7 -0 -0 -0 -0 -0 -0 -0 -0 -39 -95 -84 -35 -39 -34 -16 -0 -0 -0 -0 -0 -0 -0 -0 -1 -68 -53 -0 -0 -0 -0 -0 -0 -0 -0 -0 -0 -0 -0 -0 -0 -0 -0 -0 -0
-0 -0 -0 -0 -0 -0 -0 -28 -21 -0 -0 -0 -0 -0 -0 -0 -71 -95 -99 -106 -89 -83 -50 -37 -27 -0 -0 -0 -0 -0 -0 -0 -0 -0 -0 -0 -0 -0 -0 -0 -0 -0 -0 -0 -0 -0 -0 -0 -0 -0 -0 -0 -0 -0
-0 -0 -0 -0 -0 -0 -0 -1 -31 -11 -0 -11 -0 -0 -0 -0 -69 -103 -29 -79 -29 -91 -15 -0 -0 -0 -0 -0 -0 -0 -0 -0 -0 -0 -0 -0 -0 -0 -0 -0 -0 -0 -0 -0 -0 -0 -0 -0 -0 -0 -0 -0 -0 -0
-0 -0 -0 -0 -0 -0 -0 -8 -8 -18 -19 -0 -0 -21 -23 -62 -52 -62 -68 -0 -0 -0 -0 -0 -1 -53 -0 -0 -0 -0 -0 -0 -0 -0 -0 -0 -0 -0 -0 -0 -0 -0 -0 -0 -0 -0 -0 -0 -0 -0 -0 -0 -0 -36
-0 -0 -0 -0 -0 -13 -0 -0 -0 -0 -0 -0 -0 -0 -0 -20 -34 -66 -23 -0 -0 -0 -0 -0 -0 -0 -0 -0 -0 -0 -0 -0 -0 -33 -41 -0 -0 -0 -0 -0 -0 -0 -0 -0 -0 -0 -0 -0 -0 -0 -0 -0 -0 -0
-0 -0 -0 -5 -5 -5 -0 -0 -2 -0 -0 -25 -19 -6 -15 -35 -24 -0 -0 -12 -34 -72 -29 -0 -0 -0 -0 -0 -0 -0 -0 -0 -0 -0 -0 -0 -0 -0 -0 -0 -0 -0 -0 -0 -0 -5 -27 -33 -19 -32 -48 -3 -34 -20
-0 -0 -5 -5 -17 -0 -0 -5 -16 -7 -4 -0 -19 -22 -0 -0 -6 -0 -0 -2 -0 -35 -0 -0 -0 -0 -0 -0 -0 -0 -0 -0 -0 -0 -0 -0 -0 -0 -0 -0 -0 -0 -0 -0 -0 -0 -20 -31 -29 -26 -29 -15 -20 -21
-9 -0 -0 -0 -6 -3 -3 -2 -0 -0 -10 -5 -3 -20 -27 -0 -6 -19 -18 -30 -42 -42 -42 -0 -0 -0 -0 -0 -0 -0 -0 -0 -0 -0 -0 -0 -0 -0 -0 -0 -0 -0 -0 -0 -0 -0 -15 -28 -29 -33 -0 -0 -0 -7
-3 -0 -0 -0 -0 -0 -7 -2 -10 -15 -2 -11 -18 -30 -44 -26 -0 -10 -0 -0 -22 -41 -48 -12 -0 -0 -0 -0 -0 -0 -0 -0 -0 -0 -0 -0 -0 -0 -0 -0 -0 -0 -0 -0 -0 -0 -0 -0 -0 -0 -0 -0 -0 -8
-4 -0 -0 -0 -0 -0 -9 -0 -17 -22 -18 -6 -20 -33 -37 -17 -7 -0 -0 -0 -0 -0 -3 -15 -11 -16 -22 -10 -0 -0 -0 -0 -0 -0 -0 -0 -0 -0 -0 -0 -0 -0 -0 -0 -0 -0 -0 -0 -0 -0 -0 -0 -0 -0
-0 -0 -0 -0 -13 -8 -0 -3 -2 -15 -10 -14 -27 -9 -18 -0 -2 -4 -0 -0 -0 -0 -0 -12 -29 -24 -0 -0 -0 -0 -0 -0 -0 -0 -0 -0 -0 -0 -0 -0 -0 -0 -0 -0 -0 -0 -0 -0 -0 -0 -0 -0 -0 -0
-0 -0 -0 -0 -10 -25 -19 -38 -0 -18 -13 -32 -18 -7 -23 -7 -49 -0 -0 -0 -0 -0 -0 -0 -7 -0 -0 -0 -0 -0 -0 -0 -0 -0 -0 -0 -0 -0 -0 -0 -0 -0 -0 -0 -0 -0 -0 -0 -0 -0 -0 -0 -0 -0
-0 -0 -0 -0 -6 -0 -0 -11 -0 -0 -21 -37 -59 -77 -66 -54 -38 -0 -0 -0 -0 -0 -0 -0 -0 -0 -0 -0 -0 -0 -0 -0 -0 -0 -0 -0 -0 -0 -0 -0 -0 -0 -0 -0 -0 -0 -0 -0 -0 -0 -0 -0 -0 -0
-0 -0 -0 -0 -0 -0 -0 -0 -3 -30 -56 -122 -137 -96 -0 -9 -0 -0 -0 -0 -0 -0 -0 -0 -0 -0 -0 -0 -0 -0 -0 -0 -0 -0 -0 -0 -0 -0 -0 -0 -0 -0 -0 -0 -0 -0 -0 -0 -0 -0 -0 -0 -0 -0
-0 -0 -0 -29 -0 -0 -0 -19 -0 -22 -57 -60 -109 -138 -0 -58 -28 -0 -84 -73 -0 -0 -0 -0 -0 -0 -0 -0 -0 -0 -0 -0 -0 -0 -0 -0 -0 -0 -0 -0 -0 -0 -0 -0 -0 -0 -0 -0 -0 -0 -0 -0 -0 -0
-0 -0 -0 -0 -0 -0 -0 -0 -14 -14 -28 -41 -78 -11 -0 -0 -5 -9 -57 -104 -137 -95 -94 -17 -0 -0 -0 -0 -0 -0 -0 -0 -0 -0 -0 -0 -0 -0 -0 -0 -0 -0 -0 -0 -0 -0 -0 -0 -0 -0 -0 -0 -0 -0
Wind_Speed
25 24 22 21 19 15 13 11 10 9 15 7 20 21 19 18 19 17 18 17 16 18 18 14 15 16 16 16 17 17 15 14 14 15 17 17 17 16 15 16 15 15 15 16 17 20 26 21 20 24 21 19 16 17
24 22 21 20 16 12 10 9 8 7 14 12 18 19 19 18 18 17 17 18 19 20 20 18 17 16 14 16 17 16 16 16 16 16 16 16 16 16 17 15 12 7 11 14 16 18 16 17 14 13 10 10 8 7
24 21 19 17 14 11 8 9 9 13 15 14 20 20 18 17 17 16 17 18 17 18 21 21 19 11 13 12 13 15 15 15 15 14 13 12 16 11 16 14 10 9 9 12 15 15 15 15 15 14 14 11 9 7
26 22 17 14 13 10 8 9 10 12 17 16 17 19 18 18 18 18 18 17 15 16 16 16 15 8 10 12 13 14 13 15 14 13 11 11 11 11 11 9 9 8 10 7 12 9 16 16 17 16 16 14 13 13
26 20 15 11 10 9 8 9 8 9 13 14 15 18 19 19 20 20 20 17 17 14 16 18 20 10 11 12 11 12 14 14 15 14 14 13 13 13 17 16 10 7 8 5 4 11 13 15 18 17 15 18 19 18
25 19 14 9 9 8 9 9 9 9 11 17 15 17 19 19 19 15 14 15 15 15 15 16 17 7 9 10 11 12 12 13 16 14 15 15 12 11 12 9 15 14 12 8 11 13 13 16 16 17 21 18 15 17
24 20 16 10 9 9 8 8 8 9 11 17 17 18 19 19 18 16 16 15 18 17 15 17 17 11 8 10 12 12 12 14 15 13 13 14 14 12 10 5 7 12 15 15 10 14 18 17 18 18 23 17 15 14
25 20 16 10 9 8 8 9 8 9 14 14 18 20 21 21 19 19 18 19 14 15 16 17 16 11 8 11 12 10 10 13 15 14 15 14 15 11 10 7 13 13 14 15 13 12 17 17 16 17 21 18 19 17
25 21 17 14 12 10 9 8 9 11 17 16 20 21 15 10 10 16 12 12 15 15 17 18 15 12 9 9 11 14 13 14 18 14 12 12 11 7 6 10 11 11 12 13 16 16 17 17 15 16 20 21 12 15
25 22 19 15 13 11 10 10 11 11 16 19 15 15 13 9 10 14 16 17 17 16 17 18 17 15 8 11 14 14 16 16 17 14 14 12 12 10 8 7 9 8 8 14 18 13 14 12 13 16 18 18 17 22
25 22 19 16 14 13 12 11 12 14 14 14 14 11 13 11 12 14 13 13 15 18 17 17 7 12 12 10 12 14 18 21 19 14 13 15 15 17 17 9 3 5 10 9 17 13 13 14 12 14 15 16 19 19
21 21 21 20 16 13 11 12 13 13 11 13 16 15 13 10 10 10 10 13 13 15 15 14 10 6 11 13 13 16 14 15 15 15 14 16 15 18 17 13 10 8 8 10 15 15 14 13 14 15 15 17 18 18
19 19 18 18 17 13 12 12 14 15 15 11 11 11 10 9 9 9 8 11 11 14 16 13 12 13 13 14 15 14 14 13 17 13 14 11 11 10 13 14 13 14 11 14 17 16 15 16 14 14 15 15 15 11
19 20 19 14 15 16 16 15 14 13 12 12 11 11 10 9 8 8 11 16 13 14 13 12 17 19 14 17 14 14 14 15 15 14 14 12 9 10 10 12 18 14 14 16 17 18 18 17 16 15 16 17 19 19
21 21 19 15 17 19 19 10 11 12 12 12 12 12 9 9 3 20 21 14 15 10 14 15 16 15 15 16 16 14 14 14 12 13 13 10 10 9 10 12 14 16 17 18 18 18 19 19 18 18 21 22 23 24
22 22 15 14 16 17 13 9 10 11 12 13 11 14 15 14 18 20 20 17 3 5 12 14 13 15 14 12 11 10 13 12 13 11 12 11 11 11 11 13 15 15 16 17 18 17 19 20 20 20 22 25 27 29
21 17 14 14 15 14 13 13 11 11 12 10 9 5 14 25 26 25 25 9 5 9 9 9 10 11 13 11 10 11 12 11 9 10 11 12 12 12 12 13 14 15 16 16 17 18 19 20 21 24 26 28 31 31
17 15 14 15 17 15 15 11 15 15 10 4 3 17 24 26 25 24 16 9 8 8 10 7 12 9 10 9 11 11 7 10 10 10 11 12 14 13 13 13 13 13 15 17 17 19 21 22 23 23 23 25 28 27
17 19 18 16 16 15 15 13 11 20 15 5 10 23 25 24 18 11 10 13 14 14 15 17 14 11 10 9 10 9 8 8 9 10 11 12 12 13 12 12 13 14 16 17 18 19 20 21 22 22 22 23 27 29
24 23 19 12 12 13 16 15 9 16 16 15 17 24 24 23 4 16 17 19 20 21 16 15 12 9 7 7 6 8 9 10 11 11 11 11 12 13 13 16 17 17 18 18 19 19 20 21 21 22 22 22 23 26
17 12 11 9 11 11 17 17 15 15 20 19 23 23 22 15 19 23 23 17 25 30 2 3 4 6 6 9 11 12 12 12 11 10 10 10 10 12 15 16 16 17 18 18 18 18 17 17 17 18 18 18 16 18
13 11 13 11 12 11 16 12 16 22 21 23 23 23 23 23 19 21 21 18 20 14 9 9 9 10 13 14 14 13 13 13 12 10 11 11 11 11 13 15 16 17 18 17 16 15 14 14 13 14 15 17 19 20
17 10 13 10 13 13 16 14 20 20 20 20 18 17 17 20 18 20 21 16 22 14 9 11 13 14 15 16 15 14 13 14 14 14 13 13 13 15 15 15 15 17 17 16 16 15 15 15 15 15 16 16 18 19
14 13 14 15 10 15 19 20 21 19 19 20 19 17 9 13 13 13 12 21 20 11 12 15 15 15 14 14 12 12 12 13 14 15 15 14 14 14 15 14 15 15 16 16 16 16 15 14 13 14 15 16 16 16
11 13 13 20 20 19 18 17 19 20 18 18 19 14 12 14 15 15 16 16 14 14 15 16 16 14 13 13 13 14 14 15 14 13 14 15 14 15 15 15 15 15 16 16 15 15 14 16 15 15 17 16 15 15
10 12 11 19 19 20 19 16 15 17 19 19 18 13 15 15 16 15 14 14 14 13 14 15 15 16 15 16 15 14 14 14 13 14 14 15 12 13 13 14 14 14 15 15 16 15 15 15 16 17 16 16 16 18
20 21 25 24 22 20 19 20 19 18 18 18 16 15 9 16 11 11 12 11 10 12 13 14 16 15 14 14 15 13 13 13 15 14 13 13 11 11 12 12 13 14 15 16 16 17 17 17 19 16 18 18 16 15
23 21 24 24 25 26 25 22 20 20 16 13 15 20 19 18 15 10 10 10 11 14 16 15 14 12 14 17 16 14 13 13 14 14 15 15 15 15 15 15 15 15 16 16 17 18 18 17 17 17 18 17 18 18
24 23 22 24 24 23 22 23 23 22 23 16 18 21 20 16 16 10 10 11 12 12 12 9 9 12 15 15 14 13 13 13 12 11 10 11 13 13 13 12 12 12 13 13 14 15 16 17 18 19 18 17 16 15
25 25 24 23 22 22 23 22 23 23 20 18 16 17 19 21 21 9 8 8 8 8 9 11 14 15 14 13 12 11 11 12 13 13 13 12 12 13 13 12 13 14 16 17 17 17 18 18 17 16 15 14 14 14
22 20 24 24 23 24 23 23 22 16 15 16 15 17 19 20 19 16 15 6 8 9 10 9 9 11 12 13 13 12 12 12 13 12 12 11 10 12 11 10 12 13 13 13 13 14 15 15 15 14 13 12 14 14
22 24 23 23 23 23 24 24 23 21 16 17 21 24 21 22 22 16 18 14 7 8 11 8 6 6 9 11 12 12 12 11 11 11 11 11 11 12 14 12 9 10 12 10 9 10 11 11 11 11 10 11 13 12
23 23 23 21 21 20 21 22 19 21 21 20 18 15 18 17 12 10 16 13 12 14 14 10 15 12 5 8 10 11 10 9 9 11 9 10 12 12 11 10 10 8 8 7 7 7 9 10 9 10 11 11 10 10
Wind_Direction
351 353 354 358 3 11 18 24 36 53 21 205 315 335 272 288 297 291 261 279 265 238 225 263 245 157 145 130 124 130 135 176 221 188 166 175 189 224 295 295 317 314 315 306 297 288 276 291 289 272 279 287 262 247
349 351 353 355 1 9 18 25 39 64 9 34 356 313 263 285 293 289 266 274 267 244 228 250 226 279 45 110 106 127 122 125 128 133 145 129 156 144 162 156 3 85 355 327 315 303 303 302 304 305 304 300 288 250
347 349 352 356 1 10 25 27 33 11 358 9 334 280 265 284 291 291 272 279 277 267 258 274 226 331 13 12 70 117 138 124 115 97 77 120 186 55 169 167 122 94 41 351 331 318 314 312 305 302 298 293 281 272
343 346 351 359 6 18 31 34 25 13 328 4 327 260 269 284 287 288 274 281 293 289 282 290 312 77 35 5 13 18 48 19 42 34 68 72 48 31 13 26 34 84 32 39 348 346 320 309 300 299 295 290 283 276
340 346 351 2 12 21 32 33 58 58 291 356 344 270 275 286 286 281 269 279 284 298 281 271 279 14 60 13 35 23 17 11 350 8 4 5 7 357 331 333 346 13 359 8 350 341 325 320 311 297 288 284 282 277
341 348 355 4 11 19 22 28 29 21 357 321 323 293 276 290 289 289 287 287 296 283 296 286 306 12 23 30 25 15 7 4 338 359 345 344 9 21 0 8 337 336 342 354 338 329 325 319 316 313 290 286 283 276
344 348 354 3 6 5 18 33 37 20 359 315 304 289 283 285 287 278 282 288 278 279 297 297 307 314 59 39 31 31 18 350 342 8 359 349 353 359 358 340 353 339 342 334 351 339 327 326 313 309 303 287 275 272
346 351 359 15 15 22 21 10 27 1 329 327 295 281 287 280 286 275 285 272 292 293 292 290 304 323 353 6 19 23 27 354 343 346 353 351 346 2 357 3 338 332 327 335 336 336 329 330 325 314 307 295 279 259
349 355 3 3 7 18 15 28 358 345 301 307 277 274 317 334 337 279 311 311 297 292 288 289 304 335 353 7 9 3 1 351 340 344 350 0 352 357 359 351 345 342 341 338 334 344 339 328 324 322 317 307 254 260
354 355 358 7 19 26 22 10 354 336 297 275 321 318 323 341 320 285 293 289 288 290 291 293 299 316 351 347 349 352 350 346 343 357 2 352 337 326 318 326 341 343 354 334 330 350 349 347 340 334 323 312 301 290
1 356 4 20 31 27 13 358 341 310 308 312 313 343 326 331 325 304 313 308 294 291 295 303 303 311 334 350 351 357 347 331 335 349 352 351 352 355 353 353 14 15 352 350 330 360 360 353 350 340 332 322 307 288
351 356 7 19 24 14 345 327 339 330 345 305 294 314 337 354 339 341 335 312 314 303 301 323 348 326 332 344 349 348 358 12 3 358 358 351 359 360 359 14 25 36 34 9 350 351 352 351 346 339 335 327 317 296
331 329 346 9 5 342 323 318 350 309 282 7 10 7 45 19 352 335 343 323 327 306 301 313 331 340 343 337 345 358 358 1 359 7 358 3 17 31 28 25 18 7 11 5 356 356 354 348 346 340 338 333 330 325
307 309 317 353 330 310 304 305 324 332 333 11 30 18 41 48 7 46 106 210 312 321 327 325 323 340 336 323 343 352 358 356 0 2 4 21 46 52 47 27 5 16 7 1 359 359 356 353 349 343 333 327 319 307
294 301 315 327 317 294 282 7 4 4 346 340 346 353 15 101 149 247 214 307 311 346 345 333 334 328 348 337 342 1 4 4 11 13 22 41 56 48 34 30 22 13 9 6 6 4 2 359 355 347 336 327 320 310
293 295 328 331 322 317 341 11 357 354 347 335 339 327 315 321 257 261 274 304 17 50 353 324 356 335 350 13 16 17 10 5 15 29 40 45 45 55 50 32 24 21 17 11 10 10 4 358 354 347 339 329 320 311
294 309 339 332 326 330 330 335 351 343 344 4 18 44 181 228 244 255 271 265 51 346 341 21 24 27 17 26 28 22 10 22 53 59 60 51 53 54 41 35 29 24 25 27 26 23 19 12 7 354 344 335 327 319
315 333 337 326 317 320 320 331 312 314 345 41 31 198 269 235 242 260 307 22 9 22 126 42 1 12 15 15 9 9 51 53 71 75 62 64 52 52 47 42 48 50 42 38 37 24 16 11 10 10 7 5 351 348
311 304 307 316 319 321 314 322 317 296 317 58 165 226 244 248 303 338 353 336 329 328 333 327 348 4 5 12 13 37 77 86 87 76 78 69 59 59 64 59 44 47 39 40 31 27 29 33 38 39 34 27 19 13
248 226 195 336 340 326 303 308 349 314 317 330 302 246 232 234 356 295 293 292 293 308 337 324 338 356 17 38 65 73 68 96 93 83 85 77 76 71 61 61 61 57 46 43 42 48 54 50 48 48 46 46 31 17
299 353 6 26 345 331 307 304 311 322 294 296 253 252 248 300 270 238 262 330 298 273 86 101 79 68 71 56 92 78 78 96 102 95 101 96 100 84 60 77 68 53 50 52 62 66 65 63 59 56 54 54 61 42
327 1 342 11 355 357 317 322 304 275 276 247 243 232 228 245 277 272 262 218 225 172 89 82 79 82 86 98 98 85 81 73 74 95 105 106 102 87 81 78 72 64 64 71 73 74 74 69 73 62 57 56 56 58
278 360 329 23 342 339 294 316 259 251 238 230 238 245 251 253 274 314 315 316 265 336 49 67 92 93 96 99 93 87 84 74 67 73 80 95 95 95 93 91 84 70 70 80 85 81 79 79 76 75 64 64 70 63
304 314 312 312 78 311 253 244 230 229 229 227 225 205 164 53 28 16 59 208 194 63 87 107 110 99 101 103 98 101 96 92 81 90 89 84 72 98 103 99 96 91 88 89 88 84 86 87 87 81 69 70 75 78
328 304 309 264 238 245 239 237 232 232 240 243 247 164 129 98 136 114 135 126 101 104 107 117 120 114 112 105 100 102 99 104 98 94 101 96 87 82 89 107 105 102 99 89 88 91 88 82 88 89 83 85 93 95
332 305 289 247 245 231 229 244 252 243 243 239 236 9 184 154 165 136 109 107 112 109 117 119 118 117 116 123 119 113 110 107 103 95 101 106 106 105 103 104 103 104 109 103 94 91 94 94 91 86 88 96 92 97
248 239 226 231 238 241 238 234 237 256 258 262 300 300 299 359 45 66 45 79 86 111 117 121 128 127 123 127 127 109 100 92 113 112 97 83 92 131 140 113 110 115 119 111 98 90 92 91 92 93 90 96 109 108
240 248 225 222 224 226 233 246 257 258 275 316 319 291 308 339 4 47 49 75 83 104 113 110 116 109 104 116 114 96 82 77 91 88 63 70 65 64 72 81 81 82 83 84 84 81 79 95 101 100 98 98 98 92
218 218 229 221 227 231 240 245 251 261 277 324 315 298 307 348 341 22 59 87 94 100 101 83 69 91 97 96 95 88 81 87 90 98 101 88 84 89 85 80 86 88 92 89 90 93 95 96 96 96 99 99 103 105
215 206 218 224 232 233 228 241 246 253 280 300 308 312 313 313 311 1 58 82 82 89 87 89 95 102 102 100 98 96 93 100 103 100 104 115 125 116 102 83 90 103 103 103 101 96 92 96 102 111 113 110 116 110
212 209 212 218 233 223 226 234 254 316 301 305 321 327 332 344 339 322 316 18 80 94 102 93 91 99 104 105 111 110 113 127 129 124 120 123 110 129 120 100 107 117 121 114 103 103 106 105 107 110 115 120 117 115
205 202 209 217 220 223 233 236 237 282 311 321 319 306 338 340 313 299 299 301 331 114 131 121 111 107 119 122 126 128 125 118 133 128 102 82 86 117 132 130 114 128 141 134 124 123 130 130 131 124 123 129 123 119
185 195 198 215 234 249 253 266 305 307 317 326 347 4 6 22 56 331 283 313 337 334 320 336 336 330 149 136 138 139 127 111 117 126 104 87 94 102 113 112 112 104 108 90 93 106 144 150 119 94 108 111 112 119